| time (UTC) | temp C | wind direction | speed KPH | gust KPH | rain 1hr cm | rain 24hr cm | rain mn cm | humidity % | barometer mb |
| 20260507232220 | 23 | 39 | 0.0 | 1.6 | 0.00 | 0.00 | 0.00 | 87 | 1017.8 |
| 20260507231720 | 23 | 24 | 0.0 | 1.6 | 0.00 | 0.00 | 0.00 | 87 | 1017.7 |
| 20260507231544 | 23 | 24 | 0.0 | 1.6 | 0.00 | 0.00 | 0.00 | 87 | 1016.2 |
| 20260507231220 | 23 | 24 | 1.6 | 8.0 | 0.00 | 0.00 | 0.00 | 87 | 1017.6 |
| 20260507230720 | 23 | 51 | 1.6 | 8.0 | 0.00 | 0.00 | 0.00 | 86 | 1017.5 |
| 20260507230220 | 23 | 338 | 1.6 | 3.2 | 0.00 | 0.00 | 0.00 | 87 | 1017.4 |
| 20260507230048 | 23 | 338 | 0.0 | 3.2 | 0.00 | 0.00 | 0.00 | 86 | 1015.9 |
| 20260507225952 | 23 | 40 | 1.6 | 8.0 | 0.00 | 0.00 | 0.00 | 87 | 1017.3 |
| 20260507225221 | 23 | 127 | 1.6 | 8.0 | 0.00 | 0.00 | 0.00 | 87 | 1017.2 |
| 20260507224711 | 23 | 44 | 1.6 | 6.4 | 0.00 | 0.00 | 0.00 | 87 | 1017.3 |
| 20260507224532 | 23 | 346 | 0.0 | 3.2 | 0.00 | 0.00 | 0.00 | 87 | 1015.7 |
| 20260507224206 | 23 | 344 | 1.6 | 8.0 | 0.00 | 0.00 | 0.00 | 86 | 1017.3 |
| 20260507223708 | 23 | 184 | 1.6 | 8.0 | 0.00 | 0.00 | 0.00 | 86 | 1017.2 |
| 20260507223205 | 23 | 355 | 1.6 | 6.4 | 0.00 | 0.00 | 0.00 | 86 | 1017.2 |
| 20260507223045 | 23 | 348 | 0.0 | 8.0 | 0.00 | 0.00 | 0.00 | 86 | 1015.7 |
| 20260507222707 | 24 | 92 | 1.6 | 11.3 | 0.00 | 0.00 | 0.00 | 85 | 1017.1 |
| 20260507222441 | 24 | 300 | 3.2 | 9.7 | 0.00 | 0.00 | 0.00 | 84 | 1016.8 |
| 20260507222205 | 24 | 22 | 3.2 | 11.3 | 0.00 | 0.00 | 0.00 | 84 | 1016.9 |
| 20260507221523 | 24 | 304 | 1.6 | 9.7 | 0.00 | 0.00 | 0.00 | 83 | 1015.3 |
| 20260507221207 | 25 | 31 | 3.2 | 8.0 | 0.00 | 0.00 | 0.00 | 82 | 1016.9 |
| 20260507220705 | 25 | 344 | 3.2 | 11.3 | 0.00 | 0.00 | 0.00 | 82 | 1016.7 |
| 20260507220203 | 25 | 69 | 1.6 | 11.3 | 0.00 | 0.00 | 0.00 | 82 | 1016.9 |
| 20260507220022 | 25 | 320 | 0.0 | 4.8 | 0.00 | 0.00 | 0.00 | 82 | 1015.4 |
| 20260507215703 | 25 | 74 | 3.2 | 6.4 | 0.00 | 0.00 | 0.00 | 81 | 1016.9 |
| 20260507215203 | 25 | 92 | 3.2 | 8.0 | 0.00 | 0.00 | 0.00 | 80 | 1016.8 |
| 20260507214701 | 25 | 169 | 3.2 | 8.0 | 0.00 | 0.00 | 0.00 | 80 | 1016.9 |
| 20260507214519 | 25 | 105 | 0.0 | 8.0 | 0.00 | 0.00 | 0.00 | 80 | 1015.2 |
| 20260507214202 | 25 | 196 | 3.2 | 8.0 | 0.00 | 0.00 | 0.00 | 79 | 1016.7 |
| 20260507213703 | 26 | 109 | 1.6 | 8.0 | 0.00 | 0.00 | 0.00 | 80 | 1016.8 |
| 20260507213433 | 26 | 126 | 1.6 | 9.7 | 0.00 | 0.00 | 0.00 | 80 | 1016.7 |
| 20260507213008 | 25 | 52 | 1.6 | 8.0 | 0.00 | 0.00 | 0.00 | 80 | 1015.1 |
| 20260507212656 | 26 | 342 | 1.6 | 9.7 | 0.00 | 0.00 | 0.00 | 80 | 1016.5 |
| 20260507212150 | 26 | 5 | 3.2 | 12.9 | 0.00 | 0.00 | 0.00 | 79 | 1016.5 |
| 20260507211641 | 26 | 15 | 3.2 | 12.9 | 0.00 | 0.00 | 0.00 | 78 | 1016.4 |
| 20260507211600 | 26 | 30 | 3.2 | 12.9 | 0.00 | 0.00 | 0.00 | 78 | 1014.8 |
| 20260507211137 | 26 | 264 | 3.2 | 8.0 | 0.00 | 0.00 | 0.00 | 79 | 1016.5 |
| 20260507210635 | 26 | 26 | 3.2 | 9.7 | 0.00 | 0.00 | 0.00 | 78 | 1016.4 |
| 20260507210134 | 26 | 5 | 3.2 | 9.7 | 0.00 | 0.00 | 0.00 | 78 | 1016.6 |
| 20260507210049 | 26 | 26 | 3.2 | 9.7 | 0.00 | 0.00 | 0.00 | 78 | 1015.0 |
| 20260507205634 | 26 | 281 | 3.2 | 11.3 | 0.00 | 0.00 | 0.00 | 78 | 1016.5 |
| 20260507205133 | 26 | 132 | 3.2 | 11.3 | 0.00 | 0.00 | 0.00 | 77 | 1016.6 |
| 20260507204633 | 27 | 339 | 3.2 | 9.7 | 0.00 | 0.00 | 0.00 | 76 | 1016.5 |
| 20260507204540 | 26 | 5 | 3.2 | 9.7 | 0.00 | 0.00 | 0.00 | 77 | 1014.9 |
| 20260507204134 | 27 | 355 | 3.2 | 9.7 | 0.00 | 0.00 | 0.00 | 77 | 1016.5 |
| 20260507203633 | 27 | 346 | 3.2 | 9.7 | 0.00 | 0.00 | 0.00 | 77 | 1016.5 |
| 20260507203132 | 27 | 195 | 3.2 | 9.7 | 0.00 | 0.00 | 0.00 | 76 | 1016.6 |
| 20260507203033 | 27 | 209 | 1.6 | 9.7 | 0.00 | 0.00 | 0.00 | 77 | 1014.9 |
| 20260507202630 | 27 | 67 | 3.2 | 9.7 | 0.00 | 0.00 | 0.00 | 76 | 1016.4 |
| 20260507202129 | 27 | 317 | 3.2 | 9.7 | 0.00 | 0.00 | 0.00 | 76 | 1016.6 |
| 20260507201627 | 27 | 29 | 3.2 | 11.3 | 0.00 | 0.00 | 0.00 | 77 | 1016.5 |
| 20260507201507 | 27 | 317 | 3.2 | 11.3 | 0.00 | 0.00 | 0.00 | 77 | 1015.0 |
| 20260507201354 | 27 | 33 | 3.2 | 11.3 | 0.00 | 0.00 | 0.00 | 77 | 1016.5 |
| 20260507200621 | 27 | 72 | 3.2 | 11.3 | 0.00 | 0.00 | 0.00 | 77 | 1016.5 |
| 20260507200350 | 27 | 225 | 3.2 | 9.7 | 0.00 | 0.00 | 0.00 | 76 | 1016.5 |
| 20260507200002 | 27 | 130 | 3.2 | 9.7 | 0.00 | 0.00 | 0.00 | 76 | 1014.9 |
| 20260507195619 | 27 | 38 | 3.2 | 9.7 | 0.00 | 0.00 | 0.00 | 77 | 1016.5 |
| 20260507195119 | 27 | 86 | 3.2 | 11.3 | 0.00 | 0.00 | 0.00 | 76 | 1016.4 |
| 20260507194618 | 27 | 14 | 3.2 | 11.3 | 0.00 | 0.00 | 0.00 | 77 | 1016.5 |
| 20260507194552 | 27 | 5 | 4.8 | 11.3 | 0.00 | 0.00 | 0.00 | 76 | 1014.9 |
| 20260507194118 | 27 | 26 | 3.2 | 9.7 | 0.00 | 0.00 | 0.00 | 78 | 1016.6 |
| 20260507193854 | 27 | 24 | 4.8 | 17.7 | 0.00 | 0.00 | 0.00 | 75 | 1016.8 |
| 20260507193119 | 27 | 15 | 4.8 | 17.7 | 0.00 | 0.00 | 0.00 | 75 | 1017.0 |
| 20260507193049 | 27 | 5 | 6.4 | 17.7 | 0.00 | 0.00 | 0.00 | 75 | 1015.4 |
| 20260507192618 | 27 | 22 | 4.8 | 9.7 | 0.00 | 0.00 | 0.00 | 76 | 1017.0 |
| 20260507192117 | 27 | 26 | 4.8 | 14.5 | 0.00 | 0.00 | 0.00 | 75 | 1017.1 |
| 20260507191618 | 27 | 355 | 4.8 | 14.5 | 0.00 | 0.00 | 0.00 | 76 | 1017.1 |
| 20260507191538 | 27 | 355 | 4.8 | 14.5 | 0.00 | 0.00 | 0.00 | 75 | 1015.5 |
| 20260507191119 | 27 | 355 | 3.2 | 12.9 | 0.00 | 0.00 | 0.00 | 76 | 1017.1 |
| 20260507190619 | 27 | 227 | 4.8 | 11.3 | 0.00 | 0.00 | 0.00 | 77 | 1017.1 |
| 20260507190118 | 27 | 27 | 6.4 | 14.5 | 0.00 | 0.00 | 0.00 | 77 | 1017.0 |
| 20260507190032 | 27 | 103 | 4.8 | 14.5 | 0.00 | 0.00 | 0.00 | 76 | 1015.4 |
| 20260507185620 | 27 | 89 | 3.2 | 14.5 | 0.00 | 0.00 | 0.00 | 74 | 1016.9 |
| 20260507185119 | 27 | 17 | 3.2 | 14.5 | 0.00 | 0.00 | 0.00 | 78 | 1017.0 |
| 20260507184620 | 27 | 5 | 4.8 | 14.5 | 0.00 | 0.00 | 0.00 | 75 | 1017.1 |
| 20260507184517 | 27 | 235 | 4.8 | 14.5 | 0.00 | 0.00 | 0.00 | 75 | 1015.4 |
| 20260507184117 | 27 | 19 | 4.8 | 11.3 | 0.00 | 0.00 | 0.00 | 76 | 1017.2 |
| 20260507183847 | 27 | 242 | 4.8 | 9.7 | 0.00 | 0.00 | 0.00 | 77 | 1017.1 |
| 20260507183116 | 27 | 313 | 4.8 | 12.9 | 0.00 | 0.00 | 0.00 | 77 | 1017.1 |
| 20260507183021 | 27 | 238 | 4.8 | 12.9 | 0.00 | 0.00 | 0.00 | 78 | 1015.5 |
| 20260507182613 | 27 | 146 | 4.8 | 12.9 | 0.00 | 0.00 | 0.00 | 78 | 1017.2 |
| 20260507182114 | 27 | 329 | 4.8 | 9.7 | 0.00 | 0.00 | 0.00 | 76 | 1017.1 |
| 20260507181611 | 27 | 61 | 4.8 | 14.5 | 0.00 | 0.00 | 0.00 | 77 | 1017.2 |
| 20260507181503 | 27 | 79 | 3.2 | 14.5 | 0.00 | 0.00 | 0.00 | 75 | 1015.6 |
| 20260507181109 | 27 | 0 | 3.2 | 14.5 | 0.00 | 0.00 | 0.00 | 75 | 1017.2 |
| 20260507180610 | 27 | 34 | 3.2 | 12.9 | 0.00 | 0.00 | 0.00 | 76 | 1017.3 |
| 20260507180109 | 27 | 288 | 4.8 | 12.9 | 0.00 | 0.00 | 0.00 | 74 | 1017.4 |
| 20260507180057 | 27 | 334 | 3.2 | 12.9 | 0.00 | 0.00 | 0.00 | 75 | 1015.9 |
| 20260507175609 | 27 | 345 | 3.2 | 9.7 | 0.00 | 0.00 | 0.00 | 76 | 1017.5 |
| 20260507175107 | 27 | 306 | 3.2 | 9.7 | 0.00 | 0.00 | 0.00 | 73 | 1017.5 |
| 20260507174608 | 27 | 9 | 4.8 | 11.3 | 0.00 | 0.00 | 0.00 | 75 | 1017.5 |
| 20260507174544 | 27 | 333 | 3.2 | 11.3 | 0.00 | 0.00 | 0.00 | 76 | 1015.9 |
| 20260507174107 | 27 | 329 | 3.2 | 11.3 | 0.00 | 0.00 | 0.00 | 75 | 1017.5 |
| 20260507173607 | 27 | 236 | 3.2 | 12.9 | 0.00 | 0.00 | 0.00 | 74 | 1017.6 |
| 20260507173106 | 27 | 233 | 3.2 | 12.9 | 0.00 | 0.00 | 0.00 | 77 | 1017.6 |
| 20260507173025 | 27 | 5 | 4.8 | 12.9 | 0.00 | 0.00 | 0.00 | 77 | 1016.1 |
| 20260507172607 | 27 | 339 | 3.2 | 11.3 | 0.00 | 0.00 | 0.00 | 77 | 1017.7 |
| 20260507172106 | 27 | 15 | 4.8 | 19.3 | 0.00 | 0.00 | 0.00 | 75 | 1018.0 |
| 20260507171605 | 27 | 31 | 3.2 | 19.3 | 0.00 | 0.00 | 0.00 | 75 | 1018.0 |
| 20260507171519 | 27 | 207 | 4.8 | 19.3 | 0.00 | 0.00 | 0.00 | 75 | 1016.5 |
| 20260507171102 | 27 | 347 | 3.2 | 12.9 | 0.00 | 0.00 | 0.00 | 78 | 1018.0 |
| 20260507170602 | 27 | 333 | 4.8 | 12.9 | 0.00 | 0.00 | 0.00 | 78 | 1018.1 |
| 20260507170017 | 27 | 42 | 4.8 | 9.7 | 0.00 | 0.00 | 0.00 | 77 | 1016.6 |
| 20260507165604 | 27 | 17 | 3.2 | 9.7 | 0.00 | 0.00 | 0.00 | 76 | 1018.3 |
| 20260507165104 | 27 | 101 | 4.8 | 9.7 | 0.00 | 0.00 | 0.00 | 77 | 1018.3 |
| 20260507164604 | 27 | 174 | 4.8 | 11.3 | 0.00 | 0.00 | 0.00 | 75 | 1018.5 |
| 20260507164510 | 27 | 11 | 3.2 | 11.3 | 0.00 | 0.00 | 0.00 | 75 | 1017.0 |
| 20260507164337 | 27 | 103 | 3.2 | 12.9 | 0.00 | 0.00 | 0.00 | 76 | 1018.6 |
| 20260507163616 | 27 | 5 | 3.2 | 9.7 | 0.00 | 0.00 | 0.00 | 77 | 1018.7 |
| 20260507163603 | 27 | 5 | 3.2 | 12.9 | 0.00 | 0.00 | 0.00 | 78 | 1018.8 |
| 20260507163100 | 27 | 250 | 4.8 | 9.7 | 0.00 | 0.00 | 0.00 | 77 | 1017.1 |
| 20260507162603 | 27 | 337 | 3.2 | 9.7 | 0.00 | 0.00 | 0.00 | 76 | 1018.8 |
| 20260507162104 | 27 | 15 | 3.2 | 8.0 | 0.00 | 0.00 | 0.00 | 76 | 1018.9 |
| 20260507161610 | 26 | 66 | 0.0 | 8.0 | 0.00 | 0.00 | 0.00 | 80 | 1017.3 |
| 20260507161604 | 27 | 66 | 3.2 | 8.0 | 0.00 | 0.00 | 0.00 | 80 | 1018.9 |
| 20260507161337 | 27 | 197 | 3.2 | 11.3 | 0.00 | 0.00 | 0.00 | 78 | 1019.1 |
| 20260507161102 | 27 | 328 | 4.8 | 11.3 | 0.00 | 0.00 | 0.00 | 80 | 1019.0 |
| 20260507160600 | 26 | 88 | 4.8 | 11.3 | 0.00 | 0.00 | 0.00 | 77 | 1019.1 |
| 20260507160050 | 26 | 220 | 3.2 | 11.3 | 0.00 | 0.00 | 0.00 | 78 | 1017.5 |
| 20260507155600 | 27 | 0 | 3.2 | 11.3 | 0.00 | 0.00 | 0.00 | 77 | 1019.2 |
| 20260507155105 | 26 | 257 | 4.8 | 17.7 | 0.00 | 0.00 | 0.00 | 79 | 1019.2 |
| 20260507155100 | 26 | 224 | 3.2 | 11.3 | 0.00 | 0.00 | 0.00 | 80 | 1019.2 |
| 20260507154533 | 26 | 360 | 4.8 | 17.7 | 0.00 | 0.00 | 0.00 | 79 | 1017.7 |
| 20260507154337 | 26 | 167 | 4.8 | 17.7 | 0.00 | 0.00 | 0.00 | 77 | 1019.2 |
| 20260507153557 | 26 | 32 | 3.2 | 9.7 | 0.00 | 0.00 | 0.00 | 79 | 1019.3 |
| 20260507153102 | 26 | 339 | 3.2 | 8.0 | 0.00 | 0.00 | 0.00 | 84 | 1019.3 |
| 20260507153057 | 26 | 0 | 3.2 | 8.0 | 0.00 | 0.00 | 0.00 | 83 | 1019.3 |
| 20260507153024 | 26 | 360 | 3.2 | 8.0 | 0.00 | 0.00 | 0.00 | 81 | 1017.8 |
| 20260507152329 | 26 | 327 | 3.2 | 11.3 | 0.00 | 0.00 | 0.00 | 82 | 1019.4 |
| 20260507151557 | 26 | 34 | 3.2 | 11.3 | 0.00 | 0.00 | 0.00 | 84 | 1019.4 |
| 20260507151515 | 25 | 283 | 3.2 | 11.3 | 0.00 | 0.00 | 0.00 | 81 | 1017.9 |
| 20260507151054 | 26 | 346 | 3.2 | 8.0 | 0.00 | 0.00 | 0.00 | 82 | 1019.4 |
| 20260507150556 | 26 | 348 | 3.2 | 11.3 | 0.00 | 0.00 | 0.00 | 84 | 1019.4 |
| 20260507150327 | 26 | 65 | 3.2 | 11.3 | 0.00 | 0.00 | 0.00 | 83 | 1019.5 |
| 20260507150002 | 25 | 18 | 3.2 | 8.0 | 0.00 | 0.00 | 0.00 | 84 | 1018.0 |
| 20260507145819 | 25 | 17 | 3.2 | 9.7 | 0.00 | 0.00 | 0.00 | 85 | 1019.5 |
| 20260507145044 | 25 | 346 | 1.6 | 9.7 | 0.00 | 0.00 | 0.00 | 86 | 1019.5 |
| 20260507144553 | 25 | 246 | 0.0 | 6.4 | 0.00 | 0.00 | 0.00 | 86 | 1018.1 |
| 20260507144545 | 25 | 246 | 1.6 | 6.4 | 0.00 | 0.00 | 0.00 | 86 | 1019.6 |
| 20260507144316 | 25 | 355 | 1.6 | 6.4 | 0.00 | 0.00 | 0.00 | 87 | 1019.6 |
| 20260507143545 | 25 | 344 | 1.6 | 6.4 | 0.00 | 0.00 | 0.00 | 86 | 1019.5 |
| 20260507143049 | 24 | 12 | 1.6 | 4.8 | 0.00 | 0.00 | 0.00 | 86 | 1018.2 |
| 20260507143047 | 25 | 12 | 1.6 | 6.4 | 0.00 | 0.00 | 0.00 | 86 | 1019.7 |
| 20260507142540 | 25 | 217 | 1.6 | 6.4 | 0.00 | 0.00 | 0.00 | 86 | 1019.4 |
| 20260507142311 | 24 | 355 | 1.6 | 8.0 | 0.00 | 0.00 | 0.00 | 86 | 1019.6 |
| 20260507141538 | 25 | 315 | 3.2 | 8.0 | 0.00 | 0.00 | 0.00 | 86 | 1019.7 |
| 20260507141532 | 24 | 315 | 1.6 | 8.0 | 0.00 | 0.00 | 0.00 | 87 | 1018.3 |
| 20260507141309 | 25 | 38 | 1.6 | 9.7 | 0.00 | 0.00 | 0.00 | 87 | 1019.7 |
| 20260507140538 | 25 | 70 | 1.6 | 9.7 | 0.00 | 0.00 | 0.00 | 86 | 1019.8 |
| 20260507140038 | 25 | 67 | 1.6 | 6.4 | 0.00 | 0.00 | 0.00 | 85 | 1019.8 |
| 20260507140014 | 24 | 67 | 0.0 | 6.4 | 0.00 | 0.00 | 0.00 | 85 | 1018.3 |
| 20260507135539 | 25 | 343 | 1.6 | 8.0 | 0.00 | 0.00 | 0.00 | 85 | 1019.7 |
| 20260507135315 | 25 | 286 | 1.6 | 9.7 | 0.00 | 0.00 | 0.00 | 85 | 1019.7 |
| 20260507134533 | 25 | 77 | 1.6 | 9.7 | 0.00 | 0.00 | 0.00 | 86 | 1019.7 |
| 20260507134509 | 24 | 259 | 1.6 | 9.7 | 0.00 | 0.00 | 0.00 | 86 | 1018.3 |
| 20260507134023 | 25 | 73 | 1.6 | 6.4 | 0.00 | 0.00 | 0.00 | 85 | 1019.6 |
| 20260507133058 | 24 | 27 | 1.6 | 9.7 | 0.00 | 0.00 | 0.00 | 84 | 1018.2 |
| 20260507133023 | 25 | 28 | 3.2 | 9.7 | 0.00 | 0.00 | 0.00 | 84 | 1019.6 |
| 20260507132758 | 24 | 325 | 1.6 | 9.7 | 0.00 | 0.00 | 0.00 | 86 | 1019.5 |
| 20260507132251 | 24 | 319 | 1.6 | 6.4 | 0.00 | 0.00 | 0.00 | 88 | 1019.3 |
| 20260507131542 | 23 | 5 | 0.0 | 6.4 | 0.00 | 0.00 | 0.00 | 88 | 1017.9 |
| 20260507131519 | 24 | 5 | 1.6 | 6.4 | 0.00 | 0.00 | 0.00 | 88 | 1019.4 |
| 20260507131020 | 23 | 343 | 3.2 | 9.7 | 0.00 | 0.00 | 0.00 | 89 | 1019.4 |
| 20260507130521 | 23 | 328 | 3.2 | 12.9 | 0.00 | 0.00 | 0.00 | 90 | 1019.3 |
| 20260507130052 | 23 | 341 | 3.2 | 12.9 | 0.00 | 0.00 | 0.00 | 89 | 1017.8 |
| 20260507130021 | 23 | 298 | 1.6 | 12.9 | 0.00 | 0.00 | 0.00 | 90 | 1019.3 |
| 20260507125520 | 23 | 5 | 1.6 | 3.2 | 0.00 | 0.00 | 0.00 | 91 | 1019.3 |
| 20260507125020 | 22 | 277 | 0.0 | 3.2 | 0.00 | 0.00 | 0.00 | 91 | 1019.2 |
| 20260507124528 | 22 | 211 | 0.0 | 3.2 | 0.00 | 0.00 | 0.00 | 92 | 1017.8 |
| 20260507124523 | 22 | 211 | 0.0 | 6.4 | 0.00 | 0.00 | 0.00 | 92 | 1019.1 |
| 20260507124016 | 22 | 351 | 0.0 | 6.4 | 0.00 | 0.00 | 0.00 | 93 | 1019.2 |
| 20260507123513 | 22 | 52 | 0.0 | 3.2 | 0.00 | 0.00 | 0.00 | 93 | 1019.2 |
| 20260507123110 | 21 | 52 | 0.0 | 3.2 | 0.00 | 0.00 | 0.00 | 93 | 1017.8 |
| 20260507123015 | 22 | 328 | 0.0 | 3.2 | 0.00 | 0.00 | 0.00 | 94 | 1019.0 |
| 20260507122510 | 21 | 63 | 0.0 | 1.6 | 0.00 | 0.00 | 0.00 | 94 | 1019.0 |
| 20260507122009 | 21 | 32 | 0.0 | 3.2 | 0.00 | 0.00 | 0.00 | 94 | 1018.9 |
| 20260507121738 | 21 | 32 | 0.0 | 3.2 | 0.00 | 0.00 | 0.00 | 95 | 1018.7 |
| 20260507121621 | 21 | 32 | 0.0 | 3.2 | 0.00 | 0.00 | 0.00 | 95 | 1017.4 |
| 20260507121004 | 21 | 32 | 0.0 | 3.2 | 0.00 | 0.00 | 0.00 | 95 | 1018.7 |
| 20260507120738 | 21 | 32 | 0.0 | 3.2 | 0.00 | 0.00 | 0.00 | 94 | 1018.7 |
| 20260507120035 | 20 | 32 | 0.0 | 6.4 | 0.00 | 0.00 | 0.00 | 94 | 1017.2 |
| 20260507120005 | 21 | 32 | 0.0 | 6.4 | 0.00 | 0.00 | 0.00 | 94 | 1018.6 |
| 20260507115504 | 20 | 32 | 0.0 | 6.4 | 0.00 | 0.00 | 0.00 | 94 | 1018.6 |
| 20260507115006 | 20 | 21 | 0.0 | 3.2 | 0.00 | 0.00 | 0.00 | 94 | 1018.6 |
| 20260507114522 | 20 | 34 | 0.0 | 3.2 | 0.00 | 0.00 | 0.00 | 94 | 1017.2 |
| 20260507114500 | 20 | 34 | 0.0 | 3.2 | 0.00 | 0.00 | 0.00 | 94 | 1018.5 |
| 20260507113959 | 20 | 34 | 0.0 | 3.2 | 0.00 | 0.00 | 0.00 | 94 | 1018.4 |
| 20260507113458 | 20 | 13 | 0.0 | 3.2 | 0.00 | 0.00 | 0.00 | 94 | 1018.5 |
| 20260507113229 | 20 | 63 | 0.0 | 3.2 | 0.00 | 0.00 | 0.00 | 94 | 1018.4 |
| 20260507113105 | 20 | 63 | 0.0 | 3.2 | 0.00 | 0.00 | 0.00 | 94 | 1017.0 |
| 20260507112459 | 20 | 63 | 0.0 | 3.2 | 0.00 | 0.00 | 0.00 | 94 | 1018.4 |
| 20260507112001 | 20 | 97 | 0.0 | 3.2 | 0.00 | 0.00 | 0.00 | 94 | 1018.5 |
| 20260507111555 | 20 | 58 | 0.0 | 0.0 | 0.00 | 0.00 | 0.00 | 94 | 1017.2 |
| 20260507111500 | 20 | 58 | 0.0 | 0.0 | 0.00 | 0.00 | 0.00 | 94 | 1018.5 |
| 20260507111001 | 20 | 58 | 0.0 | 0.0 | 0.00 | 0.00 | 0.00 | 94 | 1018.3 |
| 20260507110500 | 20 | 46 | 0.0 | 1.6 | 0.00 | 0.00 | 0.00 | 94 | 1018.4 |
| 20260507110056 | 19 | 25 | 0.0 | 1.6 | 0.00 | 0.00 | 0.00 | 94 | 1017.0 |
| 20260507110003 | 20 | 25 | 0.0 | 3.2 | 0.00 | 0.00 | 0.00 | 94 | 1018.4 |
| 20260507105457 | 20 | 49 | 0.0 | 3.2 | 0.00 | 0.00 | 0.00 | 93 | 1018.4 |
| 20260507104955 | 20 | 65 | 0.0 | 6.4 | 0.00 | 0.00 | 0.00 | 93 | 1018.3 |
| 20260507104726 | 20 | 83 | 1.6 | 6.4 | 0.00 | 0.00 | 0.00 | 93 | 1018.2 |
| 20260507104610 | 19 | 69 | 0.0 | 6.4 | 0.00 | 0.00 | 0.00 | 93 | 1016.9 |
| 20260507103956 | 20 | 36 | 1.6 | 6.4 | 0.00 | 0.00 | 0.00 | 93 | 1018.2 |
| 20260507103456 | 20 | 26 | 0.0 | 6.4 | 0.00 | 0.00 | 0.00 | 93 | 1018.1 |
| 20260507103023 | 20 | 287 | 0.0 | 1.6 | 0.00 | 0.00 | 0.00 | 94 | 1016.7 |
| 20260507102957 | 20 | 287 | 0.0 | 3.2 | 0.00 | 0.00 | 0.00 | 94 | 1018.1 |
| 20260507102454 | 20 | 287 | 0.0 | 6.4 | 0.00 | 0.00 | 0.00 | 94 | 1018.0 |
| 20260507101953 | 20 | 211 | 0.0 | 6.4 | 0.00 | 0.00 | 0.00 | 94 | 1017.8 |
| 20260507101724 | 20 | 254 | 0.0 | 0.0 | 0.00 | 0.00 | 0.00 | 94 | 1017.8 |
| 20260507101603 | 20 | 254 | 0.0 | 0.0 | 0.00 | 0.00 | 0.00 | 94 | 1016.6 |
| 20260507100952 | 20 | 254 | 0.0 | 1.6 | 0.00 | 0.00 | 0.00 | 94 | 1017.8 |
| 20260507100452 | 20 | 254 | 0.0 | 1.6 | 0.00 | 0.00 | 0.00 | 94 | 1017.7 |
| 20260507100106 | 19 | 254 | 0.0 | 1.6 | 0.00 | 0.00 | 0.00 | 94 | 1016.5 |
| 20260507095954 | 20 | 254 | 0.0 | 3.2 | 0.00 | 0.00 | 0.00 | 94 | 1017.8 |
| 20260507095453 | 20 | 244 | 0.0 | 3.2 | 0.00 | 0.00 | 0.00 | 93 | 1018.1 |
| 20260507094950 | 19 | 244 | 0.0 | 1.6 | 0.00 | 0.00 | 0.00 | 93 | 1017.8 |
| 20260507094541 | 19 | 17 | 0.0 | 0.0 | 0.00 | 0.00 | 0.00 | 93 | 1016.6 |
| 20260507094451 | 20 | 17 | 0.0 | 0.0 | 0.00 | 0.00 | 0.00 | 93 | 1017.7 |
| 20260507093950 | 20 | 17 | 0.0 | 0.0 | 0.00 | 0.00 | 0.00 | 93 | 1017.8 |
| 20260507093449 | 20 | 17 | 0.0 | 0.0 | 0.00 | 0.00 | 0.00 | 93 | 1017.8 |
| 20260507093226 | 20 | 17 | 0.0 | 0.0 | 0.00 | 0.00 | 0.00 | 93 | 1018.0 |
| 20260507093102 | 19 | 17 | 0.0 | 0.0 | 0.00 | 0.00 | 0.00 | 93 | 1016.6 |
| 20260507092446 | 20 | 17 | 0.0 | 0.0 | 0.00 | 0.00 | 0.00 | 93 | 1018.0 |
| 20260507091941 | 20 | 17 | 0.0 | 0.0 | 0.00 | 0.00 | 0.00 | 93 | 1017.8 |
| 20260507091520 | 20 | 17 | 0.0 | 0.0 | 0.00 | 0.00 | 0.00 | 93 | 1016.6 |
| 20260507091440 | 20 | 17 | 0.0 | 0.0 | 0.00 | 0.00 | 0.00 | 93 | 1018.0 |
| 20260507090937 | 20 | 17 | 0.0 | 0.0 | 0.00 | 0.00 | 0.00 | 93 | 1018.0 |
| 20260507090438 | 20 | 17 | 0.0 | 0.0 | 0.00 | 0.00 | 0.00 | 93 | 1018.1 |
| 20260507085938 | 20 | 17 | 0.0 | 0.0 | 0.00 | 0.00 | 0.00 | 93 | 1018.0 |
| 20260507085436 | 20 | 17 | 0.0 | 0.0 | 0.00 | 0.00 | 0.00 | 93 | 1018.1 |
| 20260507084935 | 20 | 17 | 0.0 | 0.0 | 0.00 | 0.00 | 0.00 | 93 | 1018.0 |
| 20260507084537 | 20 | 17 | 0.0 | 0.0 | 0.00 | 0.00 | 0.00 | 93 | 1016.7 |
| 20260507084438 | 20 | 17 | 0.0 | 0.0 | 0.00 | 0.00 | 0.00 | 93 | 1018.1 |
| 20260507083934 | 20 | 17 | 0.0 | 0.0 | 0.00 | 0.00 | 0.00 | 93 | 1018.0 |
| 20260507083432 | 20 | 17 | 0.0 | 0.0 | 0.00 | 0.00 | 0.00 | 93 | 1018.0 |
| 20260507083024 | 20 | 47 | 0.0 | 0.0 | 0.00 | 0.00 | 0.00 | 93 | 1016.8 |
| 20260507082931 | 20 | 47 | 0.0 | 0.0 | 0.00 | 0.00 | 0.00 | 93 | 1018.1 |
| 20260507082428 | 20 | 47 | 0.0 | 0.0 | 0.00 | 0.00 | 0.00 | 93 | 1018.0 |
| 20260507082154 | 20 | 175 | 0.0 | 0.0 | 0.00 | 0.00 | 0.00 | 93 | 1018.0 |
| 20260507081509 | 20 | 175 | 0.0 | 0.0 | 0.00 | 0.00 | 0.00 | 93 | 1016.6 |
| 20260507081419 | 20 | 175 | 0.0 | 0.0 | 0.00 | 0.00 | 0.00 | 93 | 1017.8 |
| 20260507080920 | 20 | 175 | 0.0 | 0.0 | 0.00 | 0.00 | 0.00 | 93 | 1017.8 |
| 20260507080419 | 20 | 175 | 0.0 | 0.0 | 0.00 | 0.00 | 0.00 | 93 | 1018.0 |
| 20260507080054 | 20 | 175 | 0.0 | 0.0 | 0.00 | 0.00 | 0.00 | 93 | 1016.6 |
| 20260507075919 | 20 | 175 | 0.0 | 0.0 | 0.00 | 0.00 | 0.00 | 93 | 1017.8 |
| 20260507075419 | 20 | 175 | 0.0 | 0.0 | 0.00 | 0.00 | 0.00 | 93 | 1018.0 |
| 20260507074917 | 20 | 175 | 0.0 | 0.0 | 0.00 | 0.00 | 0.00 | 93 | 1018.0 |
| 20260507074538 | 20 | 175 | 0.0 | 0.0 | 0.00 | 0.00 | 0.00 | 93 | 1016.6 |
| 20260507074418 | 20 | 175 | 0.0 | 0.0 | 0.00 | 0.00 | 0.00 | 93 | 1018.0 |
| 20260507073918 | 20 | 175 | 0.0 | 0.0 | 0.00 | 0.00 | 0.00 | 93 | 1018.1 |
| 20260507073416 | 20 | 175 | 0.0 | 0.0 | 0.00 | 0.00 | 0.00 | 93 | 1018.1 |
| 20260507073021 | 20 | 175 | 0.0 | 0.0 | 0.00 | 0.00 | 0.00 | 93 | 1016.7 |
| 20260507072916 | 21 | 175 | 0.0 | 0.0 | 0.00 | 0.00 | 0.00 | 93 | 1018.1 |
| 20260507072416 | 21 | 175 | 0.0 | 0.0 | 0.00 | 0.00 | 0.00 | 93 | 1018.0 |
| 20260507071916 | 21 | 175 | 0.0 | 0.0 | 0.00 | 0.00 | 0.00 | 93 | 1018.2 |
| 20260507071647 | 20 | 175 | 0.0 | 0.0 | 0.00 | 0.00 | 0.00 | 94 | 1018.1 |
| 20260507071536 | 20 | 175 | 0.0 | 0.0 | 0.00 | 0.00 | 0.00 | 94 | 1016.8 |
| 20260507070915 | 20 | 175 | 0.0 | 0.0 | 0.00 | 0.00 | 0.00 | 93 | 1018.2 |
| 20260507070419 | 20 | 175 | 0.0 | 0.0 | 0.00 | 0.00 | 0.00 | 93 | 1018.3 |
| 20260507070012 | 20 | 175 | 0.0 | 0.0 | 0.00 | 0.00 | 0.00 | 93 | 1017.0 |
| 20260507065915 | 20 | 175 | 0.0 | 0.0 | 0.00 | 0.00 | 0.00 | 93 | 1018.3 |
| 20260507065648 | 20 | 175 | 0.0 | 0.0 | 0.00 | 0.00 | 0.00 | 93 | 1018.2 |
| 20260507064915 | 20 | 175 | 0.0 | 0.0 | 0.00 | 0.00 | 0.00 | 93 | 1018.3 |
| 20260507064603 | 20 | 175 | 0.0 | 0.0 | 0.00 | 0.00 | 0.00 | 93 | 1017.0 |
| 20260507064411 | 20 | 175 | 0.0 | 0.0 | 0.00 | 0.00 | 0.00 | 93 | 1018.4 |
| 20260507063911 | 20 | 175 | 0.0 | 0.0 | 0.00 | 0.00 | 0.00 | 93 | 1018.4 |
| 20260507063642 | 20 | 175 | 0.0 | 0.0 | 0.00 | 0.00 | 0.00 | 93 | 1018.5 |
| 20260507063056 | 20 | 175 | 0.0 | 0.0 | 0.00 | 0.00 | 0.00 | 93 | 1017.3 |
| 20260507062911 | 20 | 175 | 0.0 | 0.0 | 0.00 | 0.00 | 0.00 | 93 | 1018.5 |
| 20260507062404 | 20 | 175 | 0.0 | 1.6 | 0.00 | 0.00 | 0.00 | 93 | 1018.7 |
| 20260507061905 | 20 | 175 | 0.0 | 1.6 | 0.00 | 0.00 | 0.00 | 93 | 1018.7 |
| 20260507061551 | 20 | 175 | 0.0 | 0.0 | 0.00 | 0.00 | 0.00 | 93 | 1017.4 |
| 20260507061406 | 20 | 175 | 0.0 | 0.0 | 0.00 | 0.00 | 0.00 | 93 | 1018.7 |
| 20260507060907 | 20 | 175 | 0.0 | 0.0 | 0.00 | 0.00 | 0.00 | 93 | 1018.7 |
| 20260507060407 | 20 | 211 | 0.0 | 0.0 | 0.00 | 0.00 | 0.00 | 93 | 1018.9 |
| 20260507060049 | 20 | 211 | 0.0 | 0.0 | 0.00 | 0.00 | 0.00 | 93 | 1017.6 |
| 20260507055906 | 20 | 244 | 0.0 | 0.0 | 0.00 | 0.00 | 0.00 | 93 | 1018.9 |
| 20260507055409 | 20 | 244 | 0.0 | 0.0 | 0.00 | 0.00 | 0.00 | 93 | 1019.0 |
| 20260507054857 | 20 | 244 | 0.0 | 0.0 | 0.00 | 0.00 | 0.00 | 93 | 1019.0 |
| 20260507054546 | 20 | 244 | 0.0 | 0.0 | 0.00 | 0.00 | 0.00 | 93 | 1017.8 |
| 20260507054357 | 20 | 244 | 0.0 | 0.0 | 0.00 | 0.00 | 0.00 | 93 | 1019.1 |
| 20260507053855 | 20 | 244 | 0.0 | 0.0 | 0.00 | 0.00 | 0.00 | 93 | 1019.1 |
| 20260507053355 | 20 | 244 | 0.0 | 0.0 | 0.00 | 0.00 | 0.00 | 93 | 1019.2 |
| 20260507053038 | 20 | 244 | 0.0 | 0.0 | 0.00 | 0.00 | 0.00 | 93 | 1017.9 |
| 20260507052856 | 20 | 244 | 0.0 | 0.0 | 0.00 | 0.00 | 0.00 | 93 | 1019.3 |
| 20260507052355 | 20 | 244 | 0.0 | 0.0 | 0.00 | 0.00 | 0.00 | 93 | 1019.4 |
| 20260507052133 | 20 | 244 | 0.0 | 0.0 | 0.00 | 0.00 | 0.00 | 93 | 1019.5 |
| 20260507051523 | 20 | 244 | 0.0 | 0.0 | 0.00 | 0.00 | 0.00 | 93 | 1018.3 |
| 20260507051353 | 20 | 244 | 0.0 | 0.0 | 0.00 | 0.00 | 0.00 | 93 | 1019.7 |
| 20260507050851 | 20 | 244 | 0.0 | 0.0 | 0.00 | 0.00 | 0.00 | 93 | 1019.7 |
| 20260507050351 | 20 | 244 | 0.0 | 0.0 | 0.00 | 0.00 | 0.00 | 93 | 1019.7 |
| 20260507050017 | 20 | 244 | 0.0 | 0.0 | 0.00 | 0.00 | 0.00 | 93 | 1018.5 |
| 20260507045845 | 20 | 244 | 0.0 | 0.0 | 0.00 | 0.00 | 0.00 | 93 | 1019.8 |
| 20260507045611 | 20 | 244 | 0.0 | 0.0 | 0.00 | 0.00 | 0.00 | 93 | 1019.8 |
| 20260507044838 | 20 | 244 | 0.0 | 1.6 | 0.00 | 0.00 | 0.00 | 93 | 1019.9 |
| 20260507044501 | 20 | 244 | 0.0 | 1.6 | 0.00 | 0.00 | 0.00 | 93 | 1018.7 |
| 20260507044337 | 20 | 244 | 0.0 | 1.6 | 0.00 | 0.00 | 0.00 | 93 | 1020.0 |
| 20260507043834 | 20 | 244 | 0.0 | 1.6 | 0.00 | 0.00 | 0.00 | 93 | 1020.0 |
| 20260507043331 | 20 | 244 | 0.0 | 0.0 | 0.00 | 0.00 | 0.00 | 93 | 1020.1 |
| 20260507043041 | 20 | 244 | 0.0 | 0.0 | 0.00 | 0.00 | 0.00 | 93 | 1018.8 |
| 20260507042833 | 20 | 244 | 0.0 | 0.0 | 0.00 | 0.00 | 0.00 | 93 | 1020.1 |
| 20260507042332 | 20 | 244 | 0.0 | 0.0 | 0.00 | 0.00 | 0.00 | 93 | 1020.2 |
| 20260507041829 | 20 | 244 | 0.0 | 0.0 | 0.00 | 0.00 | 0.00 | 93 | 1020.2 |
| 20260507041523 | 20 | 244 | 0.0 | 0.0 | 0.00 | 0.00 | 0.00 | 93 | 1019.0 |
| 20260507041331 | 20 | 244 | 0.0 | 0.0 | 0.00 | 0.00 | 0.00 | 93 | 1020.4 |
| 20260507040827 | 20 | 244 | 0.0 | 0.0 | 0.00 | 0.00 | 0.00 | 93 | 1020.4 |
| 20260507040327 | 20 | 244 | 0.0 | 0.0 | 0.00 | 0.00 | 0.00 | 93 | 1020.4 |
| 20260507040044 | 20 | 244 | 0.0 | 0.0 | 0.00 | 0.00 | 0.00 | 93 | 1019.2 |
| 20260507035825 | 20 | 244 | 0.0 | 0.0 | 0.00 | 0.00 | 0.00 | 93 | 1020.5 |
| 20260507035323 | 20 | 244 | 0.0 | 0.0 | 0.00 | 0.00 | 0.00 | 93 | 1020.5 |
| 20260507034821 | 20 | 244 | 0.0 | 3.2 | 0.00 | 0.00 | 0.00 | 92 | 1020.6 |
| 20260507034533 | 20 | 244 | 0.0 | 3.2 | 0.00 | 0.00 | 0.00 | 92 | 1019.2 |
| 20260507034322 | 20 | 244 | 0.0 | 3.2 | 0.00 | 0.00 | 0.00 | 92 | 1020.5 |
| 20260507033820 | 20 | 244 | 0.0 | 0.0 | 0.00 | 0.00 | 0.00 | 92 | 1020.6 |
| 20260507033548 | 20 | 244 | 0.0 | 0.0 | 0.00 | 0.00 | 0.00 | 92 | 1020.6 |
| 20260507033048 | 20 | 244 | 0.0 | 0.0 | 0.00 | 0.00 | 0.00 | 92 | 1020.6 |
| 20260507033016 | 20 | 244 | 0.0 | 0.0 | 0.00 | 0.00 | 0.00 | 92 | 1019.3 |
| 20260507032319 | 20 | 244 | 0.0 | 0.0 | 0.00 | 0.00 | 0.00 | 92 | 1020.5 |
| 20260507032112 | 20 | 244 | 0.0 | 1.6 | 0.00 | 0.00 | 0.00 | 92 | 1020.7 |
| 20260507031816 | 20 | 244 | 0.0 | 0.0 | 0.00 | 0.00 | 0.00 | 93 | 1020.8 |
| 20260507031555 | 20 | 244 | 0.0 | 0.0 | 0.00 | 0.00 | 0.00 | 93 | 1019.4 |
| 20260507031317 | 20 | 244 | 0.0 | 0.0 | 0.00 | 0.00 | 0.00 | 92 | 1020.7 |
| 20260507030549 | 20 | 244 | 0.0 | 1.6 | 0.00 | 0.00 | 0.00 | 92 | 1020.7 |
| 20260507030032 | 20 | 244 | 0.0 | 0.0 | 0.00 | 0.00 | 0.00 | 92 | 1019.4 |
| 20260507025815 | 20 | 244 | 0.0 | 0.0 | 0.00 | 0.00 | 0.00 | 92 | 1020.7 |
| 20260507025314 | 20 | 244 | 0.0 | 0.0 | 0.00 | 0.00 | 0.00 | 92 | 1020.6 |
| 20260507024817 | 20 | 244 | 0.0 | 1.6 | 0.00 | 0.00 | 0.00 | 92 | 1020.6 |
| 20260507024514 | 20 | 244 | 0.0 | 1.6 | 0.00 | 0.00 | 0.00 | 92 | 1019.2 |
| 20260507024316 | 20 | 244 | 0.0 | 1.6 | 0.00 | 0.00 | 0.00 | 92 | 1020.6 |
| 20260507023811 | 20 | 244 | 0.0 | 1.6 | 0.00 | 0.00 | 0.00 | 92 | 1020.6 |
| 20260507023312 | 20 | 244 | 0.0 | 1.6 | 0.00 | 0.00 | 0.00 | 92 | 1020.7 |
| 20260507023058 | 20 | 244 | 0.0 | 0.0 | 0.00 | 0.00 | 0.00 | 92 | 1019.2 |
| 20260507022810 | 20 | 244 | 0.0 | 0.0 | 0.00 | 0.00 | 0.00 | 92 | 1020.6 |
| 20260507022539 | 20 | 244 | 0.0 | 0.0 | 0.00 | 0.00 | 0.00 | 91 | 1020.7 |
| 20260507021806 | 20 | 244 | 0.0 | 0.0 | 0.00 | 0.00 | 0.00 | 91 | 1020.6 |
| 20260507021537 | 20 | 244 | 0.0 | 0.0 | 0.00 | 0.00 | 0.00 | 91 | 1019.2 |
| 20260507021307 | 20 | 244 | 0.0 | 0.0 | 0.00 | 0.00 | 0.00 | 92 | 1020.6 |
| 20260507020804 | 20 | 244 | 0.0 | 0.0 | 0.00 | 0.00 | 0.00 | 91 | 1020.6 |
| 20260507020534 | 20 | 244 | 0.0 | 0.0 | 0.00 | 0.00 | 0.00 | 91 | 1020.6 |
| 20260507020020 | 20 | 244 | 0.0 | 0.0 | 0.00 | 0.00 | 0.00 | 91 | 1019.3 |
| 20260507015758 | 21 | 244 | 0.0 | 0.0 | 0.00 | 0.00 | 0.00 | 91 | 1020.7 |
| 20260507015256 | 21 | 244 | 0.0 | 0.0 | 0.00 | 0.00 | 0.00 | 91 | 1020.6 |
| 20260507015032 | 21 | 244 | 0.0 | 0.0 | 0.00 | 0.00 | 0.00 | 91 | 1020.5 |
| 20260507014930 | 21 | 244 | 0.0 | 0.0 | 0.00 | 0.00 | 0.00 | 91 | 1020.5 |
| 20260507014504 | 20 | 244 | 0.0 | 0.0 | 0.00 | 0.00 | 0.00 | 91 | 1019.2 |
| 20260507013749 | 21 | 244 | 0.0 | 0.0 | 0.00 | 0.00 | 0.00 | 91 | 1020.4 |
| 20260507013246 | 21 | 244 | 0.0 | 0.0 | 0.00 | 0.00 | 0.00 | 91 | 1020.2 |
| 20260507013022 | 21 | 244 | 0.0 | 0.0 | 0.00 | 0.00 | 0.00 | 91 | 1019.0 |
| 20260507012721 | 21 | 244 | 0.0 | 0.0 | 0.00 | 0.00 | 0.00 | 91 | 1020.2 |
| 20260507012221 | 21 | 244 | 0.0 | 0.0 | 0.00 | 0.00 | 0.00 | 91 | 1020.1 |
| 20260507011721 | 21 | 244 | 0.0 | 0.0 | 0.00 | 0.00 | 0.00 | 91 | 1020.2 |
| 20260507011553 | 21 | 244 | 0.0 | 0.0 | 0.00 | 0.00 | 0.00 | 91 | 1018.8 |
| 20260507011217 | 21 | 244 | 0.0 | 0.0 | 0.00 | 0.00 | 0.00 | 91 | 1020.1 |
| 20260507010718 | 21 | 244 | 0.0 | 0.0 | 0.00 | 0.00 | 0.00 | 91 | 1020.1 |
| 20260507010218 | 21 | 244 | 0.0 | 1.6 | 0.00 | 0.00 | 0.00 | 91 | 1020.1 |
| 20260507010041 | 21 | 244 | 0.0 | 1.6 | 0.00 | 0.00 | 0.00 | 91 | 1018.7 |
| 20260507005717 | 21 | 244 | 0.0 | 1.6 | 0.00 | 0.00 | 0.00 | 91 | 1020.0 |
| 20260507005218 | 21 | 244 | 0.0 | 3.2 | 0.00 | 0.00 | 0.00 | 91 | 1020.0 |
| 20260507004949 | 21 | 244 | 0.0 | 3.2 | 0.00 | 0.00 | 0.00 | 90 | 1020.0 |
| 20260507004534 | 21 | 244 | 0.0 | 3.2 | 0.00 | 0.00 | 0.00 | 90 | 1018.7 |
| 20260507004223 | 21 | 244 | 0.0 | 3.2 | 0.00 | 0.00 | 0.00 | 90 | 1020.0 |
| 20260507003721 | 21 | 154 | 0.0 | 0.0 | 0.00 | 0.00 | 0.00 | 90 | 1019.9 |
| 20260507003217 | 21 | 154 | 0.0 | 1.6 | 0.00 | 0.00 | 0.00 | 90 | 1019.7 |
| 20260507003012 | 21 | 154 | 0.0 | 1.6 | 0.00 | 0.00 | 0.00 | 90 | 1018.5 |
| 20260507002716 | 21 | 154 | 0.0 | 1.6 | 0.00 | 0.00 | 0.00 | 90 | 1019.8 |
| 20260507002444 | 21 | 154 | 0.0 | 1.6 | 0.00 | 0.00 | 0.00 | 90 | 1019.8 |
| 20260507001714 | 21 | 154 | 0.0 | 1.6 | 0.00 | 0.00 | 0.00 | 90 | 1019.6 |
| 20260507001557 | 21 | 154 | 0.0 | 1.6 | 0.00 | 0.00 | 0.00 | 89 | 1018.3 |
| 20260507001213 | 21 | 175 | 0.0 | 1.6 | 0.00 | 0.00 | 0.00 | 89 | 1019.5 |
| 20260507000711 | 22 | 175 | 0.0 | 1.6 | 0.00 | 0.00 | 0.00 | 89 | 1019.5 |
| 20260507000447 | 22 | 175 | 0.0 | 0.0 | 0.00 | 0.00 | 0.00 | 88 | 1019.4 |
| 20260507000039 | 21 | 175 | 0.0 | 0.0 | 0.00 | 0.00 | 0.00 | 89 | 1018.1 |
| 20260506235711 | 22 | 98 | 0.0 | 0.0 | 0.00 | 0.00 | 0.00 | 88 | 1019.3 |
| 20260506235207 | 22 | 98 | 0.0 | 1.6 | 0.00 | 0.00 | 0.00 | 88 | 1019.4 |
| 20260506234707 | 22 | 98 | 0.0 | 1.6 | 0.00 | 0.00 | 0.00 | 87 | 1019.3 |
| 20260506234534 | 22 | 98 | 0.0 | 1.6 | 0.00 | 0.00 | 0.00 | 87 | 1017.9 |
| 20260506234205 | 22 | 98 | 0.0 | 3.2 | 0.00 | 0.00 | 0.00 | 87 | 1019.3 |
| 20260506233704 | 22 | 98 | 0.0 | 3.2 | 0.00 | 0.00 | 0.00 | 87 | 1019.2 |
| 20260506233206 | 22 | 44 | 0.0 | 3.2 | 0.00 | 0.00 | 0.00 | 86 | 1019.1 |
| 20260506233020 | 22 | 126 | 0.0 | 3.2 | 0.00 | 0.00 | 0.00 | 86 | 1017.5 |